Location: ??????????
(54.8537°N, 38.8755°E)
Time: 01:13:15
(UTC+00:00)

Transit 2A Rocket - Pass Details

Date: 18 September 2024
Orbit: 583 x 908 km, 66.7° (Epoch: 15 October)

Event Time Altitude Azimuth Distance (km) Brightness Sun altitude
Exits shadow 22:25:57 41° 314° (NW) 1,303 6.2 -32.1°
Maximum altitude 22:26:36 42° 330° (NNW) 1,277 6.3 -32.0°
Drops below altitude 10° 22:32:19 10° 41° (NE) 2,571 8.5 -31.7°
Sets 22:34:56 0° 48° (NE) 3,485 9.3 -31.6°
